GFSSE_sfc_30mbdewp_000.txt.gz
Dewpoint
69 72 73 73 71 71 72 72 71 71 72 72 72 73 73 73 74 75 74 74 73 74 73 72 72 72 72 72 72 71 72 71 71 71 71 70 70 70 70 69 70 70 70
70 72 73 73 72 72 71 72 71 71 72 73 73 74 73 73 73 74 74 73 73 73 73 72 73 72 71 70 70 71 70 71 70 71 71 71 71 70 70 69 70 68 69
70 72 72 73 72 72 72 72 71 71 73 74 74 74 73 73 73 73 73 73 74 73 73 73 73 72 72 71 70 69 70 70 70 70 72 71 71 70 69 69 70 70 70
71 72 73 73 73 72 72 73 72 72 73 74 74 75 74 74 74 73 74 73 73 73 73 72 72 71 71 71 71 71 70 69 70 70 71 71 71 71 70 68 70 70 70
72 72 73 74 73 73 74 74 74 74 74 74 75 74 74 74 74 73 73 73 73 72 72 71 71 71 71 71 71 71 71 71 71 70 71 71 71 71 71 69 69 68 70
73 73 74 73 73 73 74 74 74 74 74 75 75 74 74 73 72 72 72 72 72 72 72 71 71 71 71 71 72 72 71 71 70 70 70 71 72 72 70 67 70 67 67
73 74 74 74 74 74 74 73 74 74 74 75 75 74 73 73 73 73 73 73 72 72 72 71 71 71 71 71 72 72 71 71 71 70 70 70 71 71 71 69 69 68 69
74 74 74 75 74 74 74 74 75 75 75 75 74 73 73 73 73 73 73 72 71 71 71 71 71 71 72 72 73 72 72 71 71 71 71 71 71 72 72 71 69 70 69
74 75 75 75 74 74 75 75 75 74 74 74 73 74 74 73 73 73 72 72 71 71 71 71 71 72 72 73 73 72 72 71 72 71 71 70 71 72 70 71 69 69 70
74 75 75 75 75 75 76 74 73 74 73 73 74 73 73 73 72 72 72 73 72 72 72 72 71 72 71 72 72 71 70 70 71 71 71 70 70 71 70 69 71 69 68
72 73 75 75 75 75 75 74 73 73 73 73 73 73 74 73 72 72 72 72 71 71 71 72 71 71 71 71 71 71 70 72 71 71 72 71 70 70 71 69 70 70 69
71 72 74 74 75 75 75 75 74 73 73 73 73 73 73 72 72 68 71 71 70 69 72 72 71 72 71 70 70 69 68 69 70 71 71 70 70 69 71 69 70 69 70
71 72 74 74 75 75 75 75 74 74 73 74 74 73 73 71 70 71 69 69 68 71 71 71 70 70 70 70 69 69 69 69 69 69 70 70 70 70 70 70 67 69 70
71 72 73 74 74 74 74 74 74 73 73 73 73 73 72 70 69 68 69 69 70 71 69 69 69 69 69 68 69 69 69 69 69 69 69 71 72 70 71 69 70 68 68
71 72 73 74 74 74 74 74 74 73 73 73 73 72 72 70 69 68 69 70 70 70 69 69 69 69 68 68 68 68 68 68 69 69 68 69 72 71 70 70 70 71 69
71 71 72 73 74 74 74 73 73 72 73 72 72 72 72 71 70 69 69 69 69 69 69 69 69 68 66 67 66 67 67 67 68 68 68 68 69 71 71 71 70 70 71
71 71 72 73 74 73 73 72 72 72 72 72 71 71 71 71 70 70 69 68 68 68 68 68 68 66 66 66 65 66 66 67 67 67 68 69 69 70 70 71 71 70 70
70 71 72 73 73 73 73 72 72 71 72 71 71 71 71 71 71 70 69 68 68 68 68 68 66 65 65 65 65 65 66 66 67 67 67 68 69 69 71 70 71 70 69
70 70 70 72 73 72 72 72 72 71 71 70 70 70 70 70 70 70 69 68 68 68 68 67 66 66 65 65 65 66 66 66 67 67 67 67 67 68 68 69 69 69 69
69 70 70 72 72 72 72 72 71 71 71 71 70 69 70 70 70 70 69 69 69 68 67 67 66 66 66 65 65 64 65 65 65 65 65 67 67 68 68 69 71 71 69
67 69 70 71 72 72 71 71 71 70 70 70 70 70 70 69 70 69 69 69 68 67 67 67 66 66 65 65 64 63 62 62 63 62 64 65 62 63 67 69 71 72 71
66 68 70 71 71 72 71 71 71 70 70 70 70 70 70 70 70 69 68 67 68 67 66 65 65 64 65 66 63 61 58 58 60 62 62 62 59 61 62 65 67 67 68
64 67 69 70 71 72 72 71 71 71 72 71 70 71 71 70 69 69 68 68 66 65 64 63 64 64 63 64 65 62 57 55 59 60 60 60 58 59 61 63 64 65 67
64 66 68 69 70 71 72 71 70 69 69 70 69 70 70 69 68 67 65 65 63 64 63 64 65 65 64 62 64 64 63 62 58 55 57 57 57 57 59 61 62 64 65
64 65 67 68 68 70 71 71 70 69 70 67 65 67 68 65 63 64 63 63 64 64 62 63 64 64 64 63 62 62 61 60 61 57 53 53 54 57 57 59 61 61 63
63 65 66 67 68 70 70 71 70 69 68 66 64 66 66 62 60 61 62 64 64 62 62 62 62 63 63 63 63 62 59 56 57 57 55 54 54 54 56 55 58 59 60

GFSSE_sfc_30mbdewp_003.txt.gz
Dewpoint
69 71 72 71 71 72 71 71 71 72 72 73 73 74 74 73 74 74 74 74 74 73 73 73 73 72 72 72 72 72 72 71 71 70 71 71 71 70 70 69 70 66 70
70 71 72 71 71 72 72 70 72 72 73 73 73 74 73 72 73 74 74 74 74 73 72 73 73 72 71 70 70 71 70 71 71 72 71 71 71 70 70 70 68 68 69
69 70 71 72 72 72 72 71 72 72 73 74 74 73 72 72 73 73 74 74 74 73 73 73 72 72 72 72 71 70 71 71 70 71 72 67 68 69 70 70 70 70 70
68 70 69 73 72 72 72 72 72 73 73 74 74 73 73 73 73 73 74 74 73 73 73 72 72 71 71 71 72 71 71 70 71 70 68 68 67 70 70 70 70 71 70
69 70 71 73 73 72 72 72 72 74 73 73 74 73 73 73 74 74 74 73 73 73 72 72 71 71 71 71 72 71 71 71 71 69 69 70 68 71 71 69 69 70 69
70 70 72 74 73 73 73 73 73 74 73 74 74 74 74 74 73 73 73 73 73 73 72 72 72 72 72 72 72 72 72 71 71 69 70 71 69 72 71 69 69 69 70
69 71 72 74 74 73 73 73 74 74 73 74 74 73 73 73 73 73 73 73 73 72 72 72 71 71 71 72 73 72 72 71 69 70 70 70 70 72 70 69 68 68 69
69 71 71 74 74 74 74 74 74 74 74 74 74 74 73 73 73 73 73 73 72 71 71 71 72 72 72 73 73 71 72 72 69 69 70 70 71 72 71 71 70 70 70
70 71 72 73 74 74 74 74 74 74 74 73 74 74 73 73 73 74 73 73 72 72 72 72 72 72 72 72 72 71 71 71 70 69 69 70 71 73 72 71 70 70 70
70 71 72 73 73 73 72 74 73 74 73 73 73 73 74 73 73 73 72 73 72 72 72 72 72 71 71 72 72 71 71 71 69 70 69 70 70 72 71 72 70 70 70
71 71 72 72 73 73 72 72 73 73 73 73 73 73 72 71 71 71 72 72 72 71 71 72 72 72 72 71 71 71 70 68 69 70 70 71 71 70 71 70 70 71 69
68 70 72 72 72 72 72 71 72 71 69 70 71 71 71 72 72 71 70 72 72 70 72 72 72 71 69 68 68 69 67 69 68 69 68 71 71 70 70 71 70 70 70
67 68 70 72 72 71 73 73 73 72 72 71 72 72 73 72 70 69 70 69 67 71 69 69 69 68 69 68 67 67 68 68 68 68 68 70 71 71 69 71 70 70 70
67 69 70 71 72 72 74 72 74 71 72 70 71 73 73 71 70 71 69 70 72 70 70 70 68 69 68 68 67 67 67 67 66 67 68 71 72 72 70 69 70 69 69
67 69 70 72 72 73 72 71 71 72 70 69 71 71 71 70 71 71 70 71 71 71 70 69 70 69 68 66 66 66 66 67 67 66 67 69 71 72 71 71 70 70 69
67 68 71 72 73 73 72 73 73 73 72 71 71 70 72 71 71 71 70 71 70 70 69 70 69 68 67 66 65 65 65 65 67 67 66 67 70 71 71 71 71 70 70
69 69 69 71 73 73 73 73 73 72 72 69 70 71 72 72 72 71 72 71 70 70 70 69 69 68 66 65 65 64 65 65 65 68 67 67 67 70 71 71 71 71 70
70 69 69 69 70 72 72 73 72 72 71 71 71 71 72 71 71 71 71 70 70 70 68 68 68 66 66 65 64 65 64 64 66 66 66 66 66 66 68 71 69 70 71
70 71 71 71 71 73 73 73 72 73 73 73 73 72 72 73 72 72 71 69 71 69 70 68 67 68 65 64 64 63 63 63 65 63 65 66 67 67 65 66 69 69 69
70 71 71 71 72 73 73 73 72 73 73 72 72 72 72 71 71 71 71 71 70 70 68 68 68 68 67 66 64 62 63 63 62 62 63 62 60 65 67 69 69 68 69
70 70 71 71 72 72 71 70 70 68 71 71 72 72 72 71 71 71 71 71 70 68 68 69 68 67 64 66 64 59 61 62 60 60 60 55 54 57 61 65 68 68 68
69 70 71 72 72 73 71 72 71 71 71 70 71 72 72 72 72 71 71 69 69 67 68 68 67 65 64 66 62 62 53 58 59 58 55 49 54 54 56 60 63 65 67
68 69 70 72 72 73 73 73 73 72 72 71 71 71 71 72 72 71 70 68 68 67 63 66 66 66 62 65 66 61 54 51 55 57 57 52 52 52 54 57 61 62 62
66 68 70 72 72 73 74 72 71 69 68 69 71 71 71 72 70 70 70 67 67 65 66 65 65 66 66 61 63 64 64 62 54 51 52 52 51 49 53 52 55 58 57
65 67 69 71 72 73 74 73 72 70 70 71 71 71 72 72 70 68 67 66 67 66 66 65 67 66 65 62 61 61 61 60 61 55 48 48 50 52 52 52 53 53 54
64 66 67 70 71 72 73 73 72 71 71 70 70 67 68 69 67 66 65 66 67 66 65 63 65 65 64 64 63 62 57 53 53 54 52 52 52 51 53 52 51 52 53

GFSSE_sfc_30mbdewp_006.txt.gz
Dewpoint
69 69 71 71 72 72 72 71 72 72 74 74 74 74 74 74 74 74 74 74 73 73 73 72 72 71 71 71 71 71 71 71 70 71 71 71 70 70 69 69 69 63 70
69 69 71 71 71 71 72 71 72 73 73 73 74 73 73 73 73 73 74 74 73 72 73 72 72 72 71 71 70 70 70 71 70 71 71 69 70 70 69 69 69 67 69
68 69 70 72 72 71 71 72 72 73 72 73 73 72 72 73 73 74 74 73 73 73 73 72 71 71 71 71 71 70 70 69 69 70 69 61 64 69 70 70 69 69 69
65 66 67 73 72 71 71 72 72 71 72 73 72 71 72 73 73 73 73 73 73 72 72 72 71 71 71 71 71 70 71 70 69 68 66 61 61 70 70 70 71 70 69
65 65 69 72 72 71 71 72 73 73 73 73 72 72 72 73 74 74 73 73 73 72 72 71 71 71 71 71 72 72 71 70 70 69 66 65 63 69 69 70 70 69 68
66 67 70 70 71 71 72 73 73 73 73 73 72 72 73 74 73 73 72 73 72 72 72 72 71 71 71 72 72 71 71 71 70 67 66 66 64 70 69 69 68 70 70
65 67 67 73 72 71 72 73 73 72 73 73 73 73 73 73 73 72 73 73 72 71 72 71 71 72 72 72 73 71 71 70 68 68 68 67 66 70 68 70 67 68 70
65 67 69 73 73 73 73 74 73 73 73 74 73 73 73 73 73 73 73 72 72 71 71 71 72 71 71 72 72 70 71 71 68 68 68 67 70 72 70 70 68 69 70
66 67 68 69 72 74 74 74 73 73 73 72 73 73 73 73 73 72 71 71 71 72 72 71 71 71 71 71 71 71 70 70 68 68 67 67 71 71 72 71 70 71 70
66 67 69 70 71 70 71 74 74 73 71 72 73 73 73 73 72 72 70 72 72 71 71 72 71 71 72 72 71 71 71 71 65 64 67 68 71 71 71 71 70 70 70
66 67 68 69 70 70 68 70 72 72 72 72 72 72 71 66 67 67 70 71 72 71 71 71 71 72 71 71 70 71 70 64 65 64 65 70 71 71 71 71 70 70 70
65 66 66 67 69 69 67 69 69 68 66 66 66 67 66 67 68 67 69 71 71 71 71 71 71 70 70 63 64 67 62 64 65 65 65 70 71 71 70 71 70 71 69
65 65 68 67 69 68 68 68 67 67 66 67 69 69 67 67 67 67 67 66 66 68 66 67 67 65 67 65 64 63 64 63 61 63 68 70 70 70 70 71 70 71 70
64 64 66 67 68 68 70 68 67 66 66 65 66 69 69 67 67 69 67 68 68 66 67 67 65 68 67 66 65 64 62 63 61 61 66 70 71 71 70 70 71 71 70
64 65 65 67 70 69 70 67 66 66 66 65 66 68 67 65 68 68 69 68 68 67 66 66 67 67 67 65 64 62 59 59 62 61 61 69 70 71 71 70 70 71 70
63 64 65 67 69 70 70 69 68 67 66 66 65 65 69 67 69 67 67 67 67 67 66 67 68 68 66 64 62 61 59 57 59 63 60 63 69 69 71 71 70 70 70
64 64 65 67 69 71 71 70 69 67 67 66 65 68 69 70 70 69 67 67 67 68 70 68 68 67 64 62 60 58 59 60 60 62 61 59 63 70 70 71 71 71 71
64 65 67 66 67 70 69 70 69 67 67 66 65 67 70 70 70 69 67 67 66 67 67 66 66 64 61 60 58 58 59 59 60 61 60 61 58 58 68 69 70 70 71
66 67 67 67 67 68 70 69 69 68 71 70 69 69 68 69 69 69 68 67 69 67 69 67 65 63 59 57 56 54 58 58 58 57 61 62 63 61 58 69 67 68 69
66 68 68 68 68 70 71 72 70 69 69 68 67 70 71 71 69 70 68 68 69 68 66 65 66 62 62 58 56 54 59 58 58 58 58 57 58 61 62 66 64 65 69
66 68 69 69 70 72 70 67 66 65 66 67 67 70 70 70 69 70 67 68 69 67 65 64 62 60 56 59 56 53 56 59 58 57 57 51 53 55 59 64 64 65 67
65 68 69 70 70 72 69 68 66 66 65 67 67 69 70 70 71 70 69 68 68 62 65 62 62 58 57 58 57 55 49 54 55 54 53 49 51 50 53 57 62 65 65
64 67 69 70 71 72 70 69 70 70 70 68 68 69 71 71 71 71 70 67 66 62 55 62 62 60 55 60 62 56 49 47 49 53 55 50 50 49 50 52 57 58 58
63 66 69 71 72 72 72 69 69 67 64 62 64 64 68 71 70 70 69 67 62 58 60 61 60 60 61 55 56 58 60 59 50 47 51 51 50 49 52 49 50 54 55
63 65 68 71 72 72 72 72 70 69 64 63 64 67 69 69 70 67 69 64 62 61 63 62 61 62 59 57 54 54 57 54 56 51 46 47 50 51 50 50 50 49 51
62 64 66 69 72 72 72 72 71 68 67 63 66 65 63 63 67 68 68 65 61 60 63 62 62 62 61 60 57 58 53 51 49 50 47 48 49 49 51 51 51 48 49

GFSSE_sfc_30mbdewp_009.txt.gz
Dewpoint
68 68 71 71 70 70 71 72 73 74 75 75 75 75 75 75 74 74 74 73 73 73 72 72 71 71 71 71 71 71 71 70 71 70 71 70 70 70 68 69 68 65 70
68 68 71 71 71 71 71 72 74 73 74 75 74 74 74 74 73 74 73 72 72 72 72 71 71 71 71 70 70 70 70 70 70 70 70 69 69 69 69 68 67 67 69
65 66 69 71 71 72 72 73 73 72 73 73 73 73 72 73 73 73 73 73 73 72 71 71 71 71 71 71 70 70 70 69 68 67 68 68 66 69 69 69 69 70 69
63 64 67 72 71 72 72 72 72 71 71 72 72 72 72 72 73 73 72 72 72 72 71 71 71 71 71 71 71 70 70 69 69 68 68 65 64 69 69 70 70 69 69
64 65 69 72 71 71 72 72 72 72 72 72 72 72 72 72 73 72 72 72 72 72 71 71 71 71 71 72 72 71 70 69 69 69 67 63 66 69 69 70 69 69 68
64 66 71 71 71 71 72 73 73 73 73 73 72 72 73 73 72 71 72 72 71 71 71 71 71 71 71 72 71 71 70 70 69 69 67 61 66 69 70 68 69 70 69
65 65 67 71 71 71 72 73 73 73 73 73 72 72 73 72 72 72 72 71 71 71 71 71 71 71 71 72 72 70 71 70 69 67 68 68 66 69 68 69 69 69 70
65 64 67 72 71 72 73 73 72 73 73 74 73 73 73 72 72 72 71 71 71 71 71 71 70 70 71 71 71 70 70 70 69 70 68 68 70 70 69 69 66 69 70
65 65 67 69 72 73 73 73 73 73 73 73 73 73 72 72 72 71 70 70 71 72 71 71 70 70 71 71 71 71 71 70 70 65 68 69 71 71 70 70 70 70 70
65 65 65 68 69 70 71 73 72 73 72 71 72 72 72 72 71 69 69 72 71 71 71 71 71 71 71 71 71 70 70 70 69 67 69 69 71 71 71 70 71 71 70
64 65 64 65 69 69 70 72 73 72 70 71 71 72 71 68 68 68 70 70 72 71 71 71 71 70 70 71 70 69 70 66 61 66 68 70 71 71 71 71 70 69 70
63 64 64 68 66 66 64 70 68 66 65 66 66 67 67 66 67 65 69 70 71 71 70 70 70 70 71 70 67 65 62 62 62 63 69 71 71 71 71 71 70 71 70
60 62 65 68 70 65 67 65 66 65 65 65 66 67 65 65 66 66 70 69 68 69 70 70 70 70 64 64 62 62 61 61 58 60 70 70 69 70 70 72 70 72 70
61 62 64 68 69 67 67 64 64 63 62 63 64 68 68 67 65 65 68 67 70 68 66 67 66 65 65 65 63 62 60 58 57 58 70 71 70 71 70 71 71 71 70
60 61 62 64 66 67 69 64 63 63 62 62 63 66 67 64 67 67 68 66 67 66 67 65 65 65 64 66 64 61 59 56 55 56 58 70 70 70 71 71 71 71 71
60 60 62 65 68 69 68 68 66 64 65 62 62 63 68 67 69 67 69 67 66 66 69 66 68 66 67 65 61 59 58 57 57 59 57 66 69 69 70 71 71 71 71
60 61 62 64 67 68 68 69 67 64 63 63 62 65 66 68 68 69 67 67 64 68 69 68 68 67 67 58 56 55 56 56 57 59 58 55 66 69 69 70 72 72 72
61 62 63 63 64 67 69 69 67 65 66 64 64 66 68 69 70 69 67 67 67 67 67 67 67 66 58 55 54 55 55 56 58 58 58 58 56 58 69 70 69 69 70
61 63 64 64 63 66 71 68 67 67 66 69 68 65 70 71 70 69 67 66 68 67 67 67 66 66 57 55 54 51 55 56 56 56 57 58 60 59 57 69 70 69 69
62 63 65 65 66 67 68 71 67 65 68 67 67 64 67 69 70 69 67 68 69 66 66 67 65 60 59 57 54 50 55 57 56 55 56 54 56 58 60 61 66 67 69
62 64 66 68 70 69 68 70 67 65 65 64 63 71 71 70 70 70 69 69 68 67 66 62 60 57 56 57 55 54 54 57 56 55 53 51 53 52 57 61 62 64 68
62 64 68 69 71 71 70 70 68 65 64 62 64 67 68 70 69 70 70 65 66 63 62 62 60 58 55 57 55 52 50 54 55 52 52 49 51 50 53 57 61 64 65
61 64 68 71 72 72 71 71 69 69 66 66 64 68 68 70 69 71 70 69 67 64 51 62 60 59 55 57 60 56 50 50 52 53 55 51 51 50 51 53 56 57 57
61 64 68 71 72 73 73 69 69 66 63 60 61 61 65 70 68 69 69 66 66 58 60 60 59 61 60 54 55 56 58 57 51 48 51 52 51 50 53 51 49 54 54
60 63 67 72 73 73 73 71 68 67 62 61 59 63 65 69 66 66 66 65 63 58 61 63 61 62 61 56 53 52 57 53 55 49 47 47 49 51 51 51 51 49 51
59 62 66 72 74 74 74 73 71 70 66 61 61 62 64 64 66 65 64 65 62 59 61 62 62 61 60 60 58 57 52 50 49 49 47 47 47 48 50 51 51 51 49

GFSSE_sfc_30mbdewp_015.txt.gz
Dewpoint
69 70 71 71 71 72 73 75 75 75 76 76 76 76 75 75 75 75 75 74 74 73 72 72 71 71 71 71 71 71 71 71 71 70 70 69 68 69 68 68 70 70 69
69 70 71 71 71 73 74 75 75 75 76 76 75 75 75 74 74 75 74 73 73 73 72 72 71 71 71 71 70 70 70 71 70 70 69 68 68 69 69 68 70 68 67
70 71 71 72 73 73 74 75 75 75 75 75 75 75 75 74 74 74 73 73 73 72 71 71 72 72 71 71 70 70 70 69 69 70 69 69 69 69 70 69 70 69 69
69 70 72 73 73 74 75 75 74 73 74 74 75 75 75 74 74 73 72 72 72 72 71 71 71 71 72 71 71 70 70 69 69 69 69 69 68 69 70 70 70 68 68
68 70 72 73 73 74 73 74 74 74 73 74 74 75 74 74 73 72 72 72 71 72 71 71 71 71 71 71 71 71 70 70 69 69 68 67 68 70 70 69 70 70 70
69 71 73 73 73 73 74 74 73 73 73 73 73 74 74 73 72 72 71 71 71 71 71 71 71 71 71 72 71 71 71 70 69 69 67 68 68 69 69 69 70 70 70
69 71 73 74 74 74 74 74 74 73 73 73 74 74 73 73 72 71 71 70 71 71 72 71 70 71 71 71 71 71 71 70 70 68 69 68 71 71 71 70 70 70 70
69 70 72 74 74 75 73 73 74 74 73 73 74 73 73 72 73 71 70 70 71 71 71 71 70 71 71 70 70 71 70 69 63 65 70 69 71 70 70 69 70 70 70
67 69 72 72 73 74 75 74 74 74 74 74 74 73 73 72 72 71 70 70 71 71 71 71 70 70 70 71 71 71 69 67 63 68 64 69 70 70 67 69 70 70 70
67 69 70 72 73 74 74 73 73 73 73 73 73 73 72 71 71 71 70 71 71 70 71 71 71 70 70 71 71 70 69 70 69 64 61 65 69 71 68 68 70 69 69
67 69 70 71 72 73 73 73 73 73 72 72 72 72 72 71 71 71 69 71 71 71 71 69 72 71 71 71 71 69 69 67 66 66 64 68 70 70 70 71 70 70 70
66 68 70 70 71 72 71 73 73 72 71 71 72 71 71 69 70 71 70 70 70 71 69 67 71 71 71 70 70 70 68 68 67 66 70 70 70 71 71 70 71 70 70
65 66 69 71 71 70 70 72 72 72 70 69 69 70 70 70 71 70 68 70 70 64 61 69 70 71 70 67 64 62 61 68 70 70 67 68 70 72 71 70 71 70 71
64 67 68 70 70 70 71 71 71 70 69 68 69 71 71 71 69 68 68 71 70 65 65 70 68 69 69 66 65 64 58 58 69 69 69 69 70 71 72 72 71 71 70
65 66 67 69 70 71 70 69 69 69 68 68 69 71 69 70 69 68 68 70 70 66 70 69 69 69 68 68 67 65 57 57 60 69 69 70 70 72 72 72 71 71 71
66 66 67 69 70 71 71 70 69 69 68 68 70 69 68 70 70 70 70 70 70 70 70 70 68 67 68 67 68 66 58 60 60 64 69 70 69 69 71 72 71 71 72
65 67 68 69 71 70 71 70 70 67 64 64 67 70 69 70 70 70 69 70 68 71 70 67 68 67 65 65 64 62 59 60 59 58 62 69 70 68 70 71 71 71 72
64 67 69 68 70 70 70 71 70 67 68 67 70 71 70 71 70 71 70 68 69 68 69 69 69 67 65 64 58 59 54 59 59 58 61 67 69 69 69 69 69 69 70
64 68 68 68 68 70 70 71 69 68 70 69 70 70 72 71 71 69 71 70 68 70 69 67 66 66 61 59 56 56 60 57 59 60 61 59 63 68 69 68 68 68 69
66 67 67 68 68 68 71 70 69 69 70 70 70 68 69 71 72 70 70 70 70 70 68 66 65 63 61 61 60 57 58 58 56 60 59 56 61 68 68 67 68 68 68
65 66 66 68 69 69 71 69 68 69 70 68 67 69 71 70 71 71 71 70 71 69 66 66 65 60 60 61 56 58 60 59 58 54 53 53 56 61 66 67 68 69 68
65 65 65 65 72 71 71 70 70 70 70 68 67 70 71 70 72 70 70 70 70 68 66 62 61 61 61 62 55 58 57 58 59 53 52 51 56 58 62 62 63 67 68
63 66 67 66 71 72 72 70 70 71 71 70 69 72 72 72 72 70 71 70 68 66 64 62 62 62 58 63 58 57 55 55 58 57 53 51 54 53 57 60 57 60 68
64 67 68 69 70 71 72 70 69 67 67 68 69 70 72 73 72 71 71 71 68 66 65 63 63 61 63 58 62 59 58 55 54 55 57 53 55 52 53 57 58 57 66
63 65 70 69 70 71 72 70 70 69 68 69 69 69 72 73 71 72 71 71 66 64 66 64 62 60 63 63 61 62 60 59 57 52 54 54 57 56 55 53 58 56 59
63 66 69 71 71 73 71 72 70 70 69 67 66 69 71 70 70 72 71 67 65 62 65 64 63 63 63 63 61 61 60 56 55 54 54 51 53 55 56 58 53 54 57

GFSSE_sfc_30mbdewp_021.txt.gz
Dewpoint
68 69 69 71 72 74 74 74 75 75 75 75 74 74 73 72 72 73 72 72 72 72 71 71 71 71 70 71 70 71 70 70 69 68 68 69 70 70 69 70 68 68 70
69 69 71 72 73 74 74 74 74 75 74 74 74 73 72 72 73 73 72 72 72 72 72 71 71 71 71 71 70 70 70 70 69 67 67 69 70 70 70 70 67 67 68
68 70 71 72 73 73 74 74 74 74 73 73 73 73 72 73 73 72 72 72 72 71 71 72 72 71 71 70 70 70 69 69 70 68 69 70 69 70 70 68 68 69 70
70 70 72 72 74 73 74 74 74 73 73 73 73 73 73 73 72 72 72 71 72 72 71 71 71 72 71 71 70 70 69 69 70 69 69 68 68 70 69 68 69 69 69
70 71 72 73 74 73 73 73 74 74 73 73 73 73 73 72 72 72 71 72 72 72 72 71 71 71 71 71 69 69 70 70 71 69 68 68 70 70 70 68 68 70 70
71 72 72 73 72 72 73 73 73 73 73 73 72 73 73 72 72 71 71 71 72 72 72 71 71 71 71 70 69 69 71 69 70 69 67 70 70 69 70 68 70 70 70
71 72 72 73 73 72 72 72 72 72 73 73 73 72 73 72 71 71 70 71 71 72 72 71 70 71 70 70 70 69 71 71 68 68 69 69 69 69 70 70 70 70 70
71 72 73 73 72 72 72 72 72 72 73 73 73 72 73 72 71 71 71 71 71 71 71 71 70 71 70 70 71 70 69 70 68 67 69 70 70 70 70 70 69 67 69
71 72 72 72 71 72 72 72 72 72 72 73 73 73 72 72 71 71 70 71 70 71 71 71 71 70 70 69 70 71 69 71 69 69 68 69 72 71 70 69 70 68 68
72 72 72 72 71 72 72 72 72 72 72 73 72 72 72 72 71 71 70 71 71 70 71 71 70 70 70 69 70 71 69 67 67 67 66 66 72 70 69 69 70 69 67
70 72 72 72 72 73 73 73 73 72 72 72 72 72 72 72 71 71 71 70 71 71 69 68 69 71 70 70 70 71 70 69 66 64 64 66 71 68 68 70 69 70 69
68 71 72 72 73 73 73 73 73 73 73 73 73 73 73 71 70 71 71 71 71 72 66 70 72 71 69 68 66 70 71 69 66 64 63 67 70 68 69 69 69 69 70
68 69 71 72 73 73 72 72 72 72 72 73 72 72 72 70 70 72 70 69 69 65 60 66 68 68 69 68 64 63 67 65 65 64 64 69 70 71 69 69 70 69 70
67 68 70 72 72 72 71 72 72 72 71 71 71 70 69 70 70 71 68 68 69 67 64 68 68 69 68 67 65 63 66 64 66 66 68 70 71 71 70 70 71 70 70
67 68 69 71 71 72 70 72 72 71 71 69 68 69 70 69 69 69 68 68 69 68 67 67 68 69 68 68 66 65 60 66 68 67 68 69 69 71 70 70 70 69 70
67 68 69 70 70 71 70 70 71 71 70 69 68 68 70 70 69 68 67 69 69 69 66 67 69 68 67 65 64 64 65 60 67 68 68 68 69 69 71 69 70 70 70
67 68 69 69 70 70 69 70 69 69 70 69 68 69 69 70 69 68 67 69 69 69 69 69 68 68 63 61 58 58 60 61 65 68 67 68 69 68 70 71 70 70 70
66 67 68 69 70 70 70 70 69 68 69 69 68 69 70 70 70 69 70 70 68 70 70 68 68 67 63 59 57 58 57 60 60 64 67 68 68 68 68 69 70 70 69
65 67 68 69 69 69 70 70 69 69 69 68 68 69 70 70 70 70 70 68 69 69 68 68 66 65 59 58 59 57 60 59 60 61 61 66 68 68 67 68 67 69 68
65 66 67 68 69 69 70 70 69 69 68 68 69 70 70 70 71 70 69 69 68 69 68 67 65 63 60 60 61 57 59 57 61 59 57 65 67 68 68 67 68 68 68
65 66 67 67 68 69 69 70 68 68 68 69 69 70 70 70 71 70 68 70 69 68 67 66 64 60 58 61 54 56 60 57 57 55 61 66 66 67 67 67 68 69 69
64 66 66 67 67 68 68 69 69 68 68 68 69 69 70 71 71 70 69 70 69 69 67 65 61 59 60 61 55 56 56 56 54 54 57 62 64 66 66 67 68 68 68
63 65 66 67 67 67 68 69 69 69 69 68 68 69 69 70 71 71 69 70 70 68 65 63 61 59 57 62 58 57 55 54 56 56 55 58 62 63 63 65 67 67 65
63 65 66 67 67 67 68 68 67 66 66 67 68 69 68 70 70 71 70 70 69 69 65 62 61 60 59 59 61 59 57 57 53 50 55 54 54 56 59 59 64 66 66
62 65 66 67 67 67 67 67 67 65 65 67 69 68 69 70 70 70 70 69 67 68 66 63 62 62 61 58 58 58 58 58 53 53 50 52 56 55 54 59 58 59 66
62 65 66 67 67 67 67 67 67 66 66 66 68 68 69 70 71 71 70 69 67 64 64 62 63 61 63 61 61 61 58 53 55 52 52 53 53 54 57 56 55 57 61

GFSSE_sfc_30mbdewp_024.txt.gz
Dewpoint
68 69 71 69 71 72 73 73 74 75 74 74 74 74 73 72 72 73 72 72 72 71 72 72 70 70 70 70 71 70 70 69 68 69 69 71 70 69 70 69 70 70 71
68 70 71 70 72 73 74 74 75 74 74 74 74 73 73 73 72 72 72 72 73 72 71 71 71 71 70 70 70 71 70 69 67 68 69 70 70 70 70 68 68 70 71
68 70 71 72 73 74 74 74 74 73 73 73 73 72 72 72 72 72 72 72 71 71 72 71 71 71 71 70 69 69 70 70 68 69 70 69 70 70 68 67 68 68 69
69 70 70 71 74 73 73 74 74 72 73 73 73 73 73 72 72 72 72 72 72 72 71 71 71 71 70 70 70 69 69 70 69 70 70 69 69 70 68 70 69 70 70
69 71 71 73 74 73 73 74 74 73 72 73 73 73 72 72 71 71 71 72 72 72 72 71 71 70 70 70 69 70 70 70 70 69 68 70 70 70 69 69 69 70 70
70 71 72 73 73 72 73 74 73 72 72 72 73 72 72 72 71 71 71 72 72 72 71 71 70 71 70 69 69 70 70 69 69 69 68 71 71 70 67 69 71 70 70
71 71 72 73 73 72 73 73 73 73 73 73 73 73 72 72 71 71 71 71 72 72 71 71 71 70 70 70 69 70 70 70 69 69 70 70 70 70 69 70 70 70 70
71 72 72 73 72 72 72 72 72 73 73 73 72 73 72 72 71 71 71 71 71 71 71 70 70 70 69 71 71 71 70 69 66 70 69 70 71 70 70 70 70 70 70
71 72 72 72 72 72 72 72 72 72 73 73 73 72 73 72 71 71 70 71 70 71 71 70 70 70 70 70 72 71 71 71 68 69 69 70 71 71 70 69 68 68 70
71 72 72 71 72 72 72 72 72 72 73 73 73 72 72 72 71 71 70 71 71 71 69 71 70 69 69 69 70 72 70 71 68 68 67 69 72 70 70 68 70 67 70
71 72 72 71 71 72 72 72 72 72 72 72 72 72 72 72 71 71 71 70 71 71 70 69 70 70 69 70 71 70 70 68 67 65 64 66 72 69 69 69 69 67 68
69 71 72 72 71 73 73 73 72 72 72 72 73 72 73 71 70 72 72 71 71 71 64 70 72 71 70 67 65 71 72 69 65 64 64 67 71 69 68 70 69 70 69
69 71 72 72 72 73 73 73 73 73 73 73 72 72 72 71 69 71 70 69 70 68 62 68 68 69 69 66 63 65 69 68 66 65 63 68 70 69 69 69 69 69 70
68 70 71 72 73 73 72 72 72 72 72 72 72 72 70 70 70 71 69 68 69 69 65 68 69 69 68 67 63 64 65 65 66 66 67 70 70 70 69 70 69 70 70
67 69 70 72 72 72 71 72 72 72 72 71 70 70 70 68 68 69 69 68 69 69 67 67 68 69 69 68 67 63 62 65 66 67 68 69 70 71 70 69 71 70 69
66 67 69 71 72 72 71 71 71 71 71 70 69 68 69 69 69 69 68 68 68 69 68 67 69 67 67 65 64 66 65 62 66 68 68 67 70 70 71 69 69 70 69
66 67 68 70 71 71 71 70 71 71 70 70 69 68 69 70 69 69 68 68 69 70 69 69 68 68 64 60 58 60 61 61 63 67 68 68 68 68 70 70 70 69 69
66 67 68 68 70 70 70 69 69 69 69 69 69 69 69 69 70 69 68 68 70 70 70 68 68 68 64 59 58 59 58 61 62 67 67 68 68 68 68 68 69 70 69
66 67 68 69 69 69 69 69 69 68 68 68 69 69 69 70 70 69 69 70 69 69 69 68 67 66 60 59 61 58 60 60 61 61 62 65 67 69 68 67 67 69 68
66 67 68 69 69 69 69 69 69 69 69 69 68 69 69 70 70 70 70 70 69 69 68 68 66 63 60 62 60 59 60 59 62 61 60 65 68 69 68 68 69 69 67
66 66 67 68 69 69 69 69 68 68 68 69 68 69 70 70 71 70 70 70 69 69 68 67 64 61 59 61 55 57 59 58 56 57 64 67 68 68 67 67 68 69 69
64 66 67 67 68 69 69 69 69 68 68 69 69 69 70 70 71 70 69 69 69 69 67 66 62 60 60 60 56 56 55 55 55 56 61 63 66 67 67 68 69 69 68
63 65 66 67 68 69 69 69 69 68 69 68 68 69 69 70 71 70 69 69 69 69 68 66 62 59 57 62 58 57 55 53 56 56 57 59 63 64 64 66 67 67 66
62 65 66 67 68 68 69 68 68 67 66 67 67 68 69 70 70 71 70 70 69 69 67 65 62 60 59 59 61 59 58 58 53 51 56 56 57 59 61 61 65 67 66
62 63 66 67 67 67 68 67 68 67 67 67 68 67 68 69 70 71 71 70 69 69 68 65 63 61 60 59 59 58 58 57 55 53 51 52 56 57 56 60 60 63 67
61 62 65 66 67 67 68 67 67 67 66 66 67 67 67 69 70 70 70 70 69 68 68 66 63 62 62 60 60 60 57 54 54 53 53 54 53 55 58 57 57 59 60

GFSSE_sfc_30mbdewp_027.txt.gz
Dewpoint
70 71 71 71 71 71 72 73 74 75 74 74 74 73 73 72 72 72 72 72 72 72 72 71 71 71 70 71 70 70 69 68 69 69 70 70 69 69 70 71 69 67 71
69 71 71 71 71 72 73 74 74 75 74 74 73 72 72 72 72 72 72 73 72 71 71 71 71 70 70 71 71 70 70 68 68 70 70 70 70 71 68 69 70 70 71
68 70 70 72 73 73 73 74 74 74 73 73 73 73 72 72 72 72 72 71 71 72 71 71 71 71 70 70 70 70 70 69 68 70 69 67 68 69 67 67 70 70 70
68 68 68 73 73 73 74 74 74 73 73 73 73 72 72 72 72 72 72 72 72 72 71 71 71 71 70 70 69 69 70 69 69 70 67 67 67 68 69 68 70 69 69
67 68 70 73 74 73 74 74 74 73 73 73 73 72 72 72 71 72 72 72 72 72 71 71 70 70 70 70 70 69 70 71 69 67 68 68 66 68 70 70 70 70 68
67 68 72 73 72 73 74 73 73 73 73 73 73 72 72 71 71 72 72 72 72 71 71 71 71 70 69 70 68 68 69 69 69 66 68 69 67 69 69 70 69 70 69
66 68 71 73 73 73 74 73 72 72 72 73 73 72 72 71 71 71 71 72 72 71 71 71 70 70 70 70 69 70 70 68 68 67 68 68 68 68 70 71 70 70 70
66 68 70 73 73 73 73 73 73 72 73 73 73 72 72 72 71 71 71 72 71 71 70 70 70 70 70 71 71 70 70 68 68 68 68 68 69 70 70 70 70 70 70
67 68 68 70 71 72 72 72 73 73 73 73 73 73 73 72 71 70 71 71 71 71 70 70 70 70 70 71 71 71 71 69 67 68 66 68 70 70 70 69 69 71 69
68 68 68 68 69 70 70 72 72 72 73 73 73 72 72 72 71 71 70 72 71 70 70 70 70 69 69 70 71 71 71 70 66 67 67 67 71 70 69 70 66 69 68
68 68 68 68 70 71 70 71 71 72 72 73 72 72 71 70 71 70 72 71 71 70 70 69 70 70 70 70 70 71 70 67 64 63 64 69 71 70 69 70 69 69 67
66 68 67 67 69 70 69 71 71 70 68 69 69 71 71 71 71 71 72 72 72 68 68 71 71 71 69 64 62 70 68 68 64 63 63 67 71 69 69 69 70 67 69
65 66 68 68 70 69 68 70 70 70 70 70 72 71 71 71 71 70 70 69 70 68 65 68 68 68 67 63 61 61 68 68 65 63 64 67 70 69 69 70 69 69 69
65 65 67 68 70 70 70 69 70 70 70 69 69 72 71 69 70 71 71 69 70 69 68 69 68 70 68 68 63 61 63 64 64 65 65 68 69 69 69 69 70 69 70
64 65 66 68 70 70 71 69 70 71 70 69 70 70 69 68 69 70 71 70 69 70 68 69 69 69 70 68 68 64 63 65 65 65 65 69 70 70 69 70 70 71 69
64 65 67 69 70 70 70 71 70 71 70 70 68 68 70 69 70 70 70 69 69 70 70 69 70 69 66 65 64 66 65 63 66 66 65 65 69 70 70 69 69 70 69
65 66 67 69 70 71 71 71 70 70 69 68 67 69 69 70 71 72 70 69 69 71 72 71 70 69 64 60 61 62 62 63 62 66 66 65 65 68 69 69 69 69 70
65 66 68 68 69 70 71 71 70 69 68 67 67 67 68 69 71 72 71 70 70 71 71 69 69 68 66 61 62 62 61 62 63 65 65 66 66 64 67 68 68 68 69
66 67 67 68 68 69 71 70 70 69 68 67 67 67 68 70 71 71 70 70 72 71 70 70 68 68 63 61 61 60 61 62 63 60 63 65 66 66 65 67 67 68 68
66 67 67 68 68 70 70 70 69 68 67 67 66 67 69 70 71 71 70 71 71 69 69 69 69 66 63 62 58 60 60 63 63 62 63 64 67 67 66 67 67 66 67
66 67 68 69 69 70 69 67 66 65 65 67 69 70 70 71 71 72 70 72 71 70 70 70 68 66 61 63 59 60 60 61 59 61 64 62 66 66 66 67 66 66 67
65 67 68 69 70 70 69 68 66 66 65 68 70 71 71 71 72 72 71 71 71 69 70 70 68 63 61 63 58 58 54 57 57 58 64 62 65 62 61 62 68 69 67
65 67 68 70 71 71 70 69 69 69 69 69 69 70 70 72 72 72 72 71 71 71 69 70 68 65 59 63 63 57 53 51 57 57 62 62 64 61 60 62 64 66 67
64 66 68 69 70 70 71 69 69 66 64 66 68 69 70 71 71 72 72 72 72 70 70 70 68 65 62 59 61 61 62 62 53 53 56 60 61 60 60 60 61 63 65
63 65 67 69 70 70 71 70 69 68 66 67 68 69 71 71 72 71 72 72 72 71 71 70 68 66 63 59 60 59 59 59 60 55 52 54 59 58 58 59 58 60 63
63 63 65 69 70 71 71 71 70 69 68 67 68 67 67 68 69 71 72 73 72 71 71 71 69 67 65 62 62 61 57 55 55 56 55 56 54 56 56 57 58 59 59

GFSSE_sfc_30mbdewp_030.txt.gz
Dewpoint
65 70 71 71 71 72 73 73 75 75 74 73 73 73 72 72 72 72 72 71 70 71 71 71 71 70 71 70 70 69 68 69 69 70 70 70 70 71 71 70 70 66 71
71 71 71 71 71 72 72 74 75 74 73 74 73 72 72 72 72 72 72 72 72 71 71 71 70 70 71 71 71 70 68 68 69 70 70 70 70 69 70 70 69 70 71
70 70 70 72 72 72 74 74 74 73 73 73 73 73 72 72 72 72 71 71 72 71 71 71 71 70 70 70 70 70 69 69 70 69 69 63 66 68 68 71 71 71 71
67 68 69 72 73 73 73 74 74 72 73 73 73 72 72 72 72 71 72 72 70 71 71 71 70 70 70 69 69 70 70 69 70 69 67 63 61 67 67 70 70 70 71
68 68 70 73 73 73 73 74 74 73 73 73 73 72 72 72 72 72 72 72 71 71 71 71 70 70 69 69 69 70 70 69 69 68 66 66 61 69 70 70 70 69 68
66 66 72 73 73 73 73 73 73 72 73 73 72 72 72 71 72 72 72 72 71 71 71 71 70 70 69 69 68 68 69 69 69 62 65 66 63 69 70 69 70 69 68
65 66 70 73 73 73 73 73 73 73 73 73 72 72 71 71 71 72 72 72 71 71 70 70 70 70 70 70 70 70 69 68 66 62 64 67 64 69 69 70 70 70 70
64 64 68 73 73 74 73 73 72 72 73 73 73 72 72 71 71 71 72 71 71 70 70 70 70 70 71 70 70 71 69 67 66 63 63 65 69 70 70 70 70 70 70
64 62 65 67 71 73 73 73 72 73 73 73 73 72 72 71 71 71 71 71 71 70 70 70 70 70 70 71 71 71 69 68 66 64 63 63 70 70 70 70 71 70 71
63 62 63 65 67 68 70 73 73 73 73 73 72 72 72 71 71 71 70 71 70 70 70 70 70 70 70 70 71 71 72 68 64 65 62 67 70 70 69 67 70 69 68
63 61 62 63 66 67 67 70 72 72 73 72 72 72 71 69 68 68 70 71 71 70 70 71 71 70 69 70 70 71 71 62 61 62 63 70 71 70 69 69 67 69 67
64 61 61 62 64 66 64 67 67 65 64 65 65 68 68 69 69 68 70 71 71 66 69 70 69 68 67 56 59 69 66 63 60 61 63 70 71 70 68 70 68 70 67
64 61 61 63 65 65 64 66 65 65 64 66 69 70 69 69 69 67 67 66 66 65 64 67 67 65 61 57 54 55 59 59 57 58 64 67 70 70 68 69 70 68 68
63 62 62 63 65 65 64 65 64 63 64 63 64 69 69 68 68 68 66 66 66 64 66 65 65 65 63 62 61 56 55 56 57 57 65 68 70 68 69 70 69 70 70
62 63 63 64 66 66 66 63 62 64 64 62 64 66 67 67 68 68 68 66 67 66 65 66 65 65 66 67 64 59 57 58 58 58 62 69 70 69 69 69 70 69 70
62 62 63 65 67 67 67 67 66 66 64 64 62 63 68 68 69 67 67 66 66 67 67 68 66 66 64 62 65 61 55 57 58 59 59 65 69 70 68 69 69 70 70
61 61 62 65 66 68 68 69 68 65 65 63 62 65 67 69 70 71 68 67 66 69 68 68 66 65 62 59 62 57 56 59 58 58 59 60 65 68 69 68 69 70 71
61 62 64 64 65 67 68 69 67 65 65 63 61 63 67 68 71 71 68 67 68 69 67 67 65 63 60 59 58 57 55 58 60 59 59 61 60 62 67 68 68 69 69
62 63 65 66 65 67 69 68 68 66 66 62 61 63 66 68 70 71 69 68 71 68 68 67 65 65 60 59 59 55 54 57 60 55 58 60 61 59 60 66 68 68 68
64 65 66 67 67 68 69 69 67 65 64 62 62 63 65 68 69 71 69 68 68 67 66 67 66 65 61 59 55 53 55 58 56 56 56 56 61 61 60 63 65 66 68
63 65 67 67 68 69 68 67 65 62 62 61 62 65 67 70 71 72 69 69 70 68 68 68 67 66 60 61 53 55 56 57 56 55 55 54 57 57 58 60 60 61 65
63 65 67 67 69 70 68 67 64 62 61 61 63 66 69 70 71 72 71 69 69 67 70 70 68 62 61 56 54 53 51 53 54 54 55 55 55 54 55 57 63 64 63
61 64 67 69 69 70 69 68 67 64 63 63 64 67 70 71 71 73 71 68 70 70 67 70 69 66 58 58 61 56 50 49 51 54 58 55 57 54 55 58 58 62 61
61 64 66 69 70 71 70 67 68 63 61 62 64 65 67 70 70 71 72 71 72 69 69 71 69 66 66 55 58 58 61 61 51 51 54 56 56 56 56 55 57 58 59
61 63 65 69 71 71 72 69 68 67 63 62 62 66 70 70 71 70 71 72 72 71 70 71 70 69 66 57 55 57 57 56 57 53 51 53 56 55 56 57 55 56 58
60 62 64 69 71 72 71 71 71 70 67 63 65 64 65 66 68 70 70 72 72 71 71 72 71 70 68 63 56 58 54 53 53 54 52 53 53 55 56 55 56 56 56

GFSSE_sfc_30mbdewp_033.txt.gz
Dewpoint
66 69 70 72 72 72 72 73 74 73 73 73 73 72 72 72 72 72 71 71 72 71 71 71 70 71 70 70 70 68 68 69 71 71 71 71 71 71 71 71 70 67 71
65 69 71 72 72 73 73 75 74 73 73 74 72 72 72 72 73 72 72 72 71 71 71 71 70 71 71 71 70 69 68 70 70 70 69 70 70 70 71 70 69 71 71
67 70 69 72 72 72 74 74 73 73 73 73 73 72 72 72 71 71 72 72 72 71 71 71 70 70 70 70 70 70 69 70 70 70 69 65 65 68 71 71 71 71 71
69 66 66 73 73 73 74 74 73 73 73 73 72 73 72 72 71 71 72 71 71 71 71 70 70 70 69 69 70 70 69 70 69 68 68 62 58 67 70 71 71 71 71
68 67 69 73 73 74 74 73 73 72 73 73 72 72 72 72 71 71 71 71 71 71 71 70 70 70 69 68 69 70 70 69 69 68 65 66 65 69 69 70 69 70 69
67 66 72 73 73 73 73 73 72 72 73 72 72 71 71 72 72 72 71 71 71 71 71 70 70 70 69 69 69 69 69 69 68 67 65 65 66 69 69 69 70 68 69
65 67 70 73 74 73 73 73 72 72 73 72 72 71 71 71 71 72 72 71 71 70 70 70 70 70 70 70 70 69 68 68 64 65 65 63 66 70 70 70 69 70 69
66 63 70 73 73 73 72 72 73 73 73 72 72 72 71 71 72 72 72 71 70 70 70 70 70 70 70 70 71 69 67 68 64 61 67 65 70 70 70 70 71 70 70
61 62 67 69 71 72 73 72 72 72 73 73 72 72 71 71 71 71 71 71 70 70 70 70 70 70 71 70 71 70 67 67 67 61 61 66 71 70 70 71 71 71 70
60 60 63 65 67 68 70 72 72 72 73 73 73 72 72 71 71 70 71 71 70 70 70 70 70 69 70 71 71 71 69 68 68 60 62 67 70 70 69 71 70 70 71
59 59 59 62 65 66 67 70 72 72 72 72 71 72 71 71 70 70 71 70 70 70 70 71 70 70 70 70 71 71 71 68 62 65 65 71 71 70 69 66 71 67 70
58 57 58 60 62 64 62 68 67 66 65 66 67 68 72 70 68 67 68 70 71 67 69 69 68 69 70 64 65 71 70 62 59 62 65 71 71 70 70 68 70 67 67
58 57 58 60 62 62 62 63 63 62 62 64 67 69 70 67 68 68 66 65 67 65 66 70 69 67 58 59 54 63 61 59 56 61 66 70 70 70 68 71 69 69 67
59 57 58 60 62 61 62 61 61 60 61 61 64 69 69 68 66 71 69 66 65 65 67 69 67 65 68 65 60 54 53 57 55 61 65 69 68 69 69 69 70 69 69
59 58 58 61 64 64 64 61 60 60 60 59 63 67 66 69 67 68 67 67 67 68 68 66 65 65 64 65 63 63 56 53 55 62 62 68 69 69 70 70 70 70 70
59 58 59 61 64 65 65 64 62 61 61 60 60 63 69 67 67 67 66 67 66 70 69 66 66 67 67 63 60 60 55 56 56 59 62 66 69 69 69 69 70 70 70
59 59 60 62 65 66 66 66 65 62 61 61 60 63 67 68 69 70 67 67 68 70 68 68 67 68 63 59 59 54 56 58 55 57 63 63 66 70 68 69 69 70 71
59 60 61 62 63 66 66 67 66 63 62 61 60 62 66 68 70 70 68 65 69 68 64 67 62 60 61 55 56 54 56 56 57 55 58 64 65 63 69 68 69 70 70
60 61 62 62 62 65 67 67 66 65 63 61 59 60 67 68 69 71 70 69 69 68 65 62 64 61 56 55 57 54 55 55 58 55 56 57 60 64 63 68 68 68 68
60 61 63 63 65 68 67 69 66 64 63 62 59 59 68 68 69 70 69 69 67 68 67 68 65 60 60 56 53 52 55 55 55 56 55 59 57 57 64 65 65 66 68
59 61 65 66 68 68 67 66 65 63 63 61 60 62 64 67 69 70 69 70 68 69 67 66 66 64 60 57 53 53 54 54 54 53 53 54 55 58 56 58 65 66 66
60 63 67 68 70 70 68 67 65 64 60 60 60 64 65 68 69 70 70 70 69 69 68 69 67 65 57 54 57 52 51 51 52 53 52 52 54 53 54 56 58 65 67
60 64 67 70 71 71 69 69 68 65 63 60 60 62 66 69 69 72 71 68 69 70 70 70 67 63 58 54 61 58 51 52 50 52 54 55 55 52 54 56 58 60 62
59 63 67 71 71 72 72 67 67 63 60 59 61 60 65 70 69 70 69 68 70 68 70 70 68 66 65 55 55 57 62 62 58 53 53 54 56 55 55 55 57 58 58
58 61 65 71 72 71 72 70 67 66 61 60 60 63 66 71 70 68 71 70 71 71 70 70 70 69 64 60 55 54 55 52 55 55 55 55 55 54 57 57 55 58 58
57 59 64 70 72 73 73 73 71 68 65 61 61 61 63 65 69 71 70 72 73 72 69 71 71 70 69 62 57 56 55 54 54 54 52 55 55 56 54 55 55 55 56

GFSSE_sfc_30mbdewp_036.txt.gz
Dewpoint
67 69 71 72 73 73 74 74 73 73 73 74 73 73 73 73 73 73 73 72 72 72 71 71 71 70 71 71 68 67 69 70 71 71 71 71 71 71 71 71 70 70 72
68 69 71 72 72 73 74 74 74 74 74 73 73 73 73 73 72 73 72 72 71 71 71 70 71 71 71 71 69 69 70 70 70 70 70 70 70 71 70 70 70 71 71
68 69 71 73 73 73 74 74 74 74 73 73 73 72 73 72 72 72 72 72 71 71 71 70 70 71 70 70 70 69 71 70 69 68 68 66 68 70 70 70 72 71 71
66 66 68 73 73 74 74 74 73 73 73 73 73 73 73 72 72 72 71 72 71 71 71 70 70 70 69 70 71 69 70 70 68 68 68 65 62 70 70 71 71 71 71
64 63 72 73 73 73 74 74 73 73 73 72 73 72 72 71 71 71 71 71 71 71 70 70 70 69 69 69 70 70 69 69 69 68 67 67 64 69 70 70 70 70 70
64 66 72 73 73 74 74 73 73 73 72 72 72 71 72 72 72 71 71 71 71 71 71 71 70 70 69 69 69 69 69 69 69 68 68 69 69 69 69 70 69 70 70
67 70 70 74 74 74 73 73 73 73 72 72 71 72 71 71 72 72 71 71 71 71 70 70 70 71 70 70 69 69 68 68 65 65 65 69 71 70 70 69 69 69 70
66 67 71 74 74 73 73 73 73 73 72 72 72 72 71 72 72 72 71 70 70 70 70 70 70 71 71 70 70 69 68 68 65 69 67 70 71 71 70 71 70 70 70
63 67 70 72 72 73 73 73 72 72 72 72 72 72 71 71 71 71 71 71 70 70 70 70 70 70 71 70 70 69 68 67 64 69 68 71 71 70 71 71 71 70 70
61 65 68 70 70 70 71 72 72 72 72 72 72 72 71 71 70 70 72 71 71 70 70 70 70 70 71 71 71 70 68 68 68 66 68 71 71 70 71 70 71 71 71
61 63 64 65 68 70 70 71 72 72 72 72 72 72 72 72 71 71 71 70 69 70 70 70 69 70 70 71 72 71 70 68 65 67 68 71 71 68 68 70 68 71 71
59 59 61 63 66 68 65 71 71 70 69 70 71 66 66 72 71 68 69 71 70 68 69 71 70 71 70 68 70 72 69 68 66 67 70 72 71 70 68 69 68 67 70
58 57 60 64 66 65 67 69 68 68 67 69 70 69 67 71 70 70 68 68 70 69 70 60 64 69 68 68 66 68 66 69 65 64 71 72 71 69 71 69 70 66 67
57 57 59 64 65 64 67 64 65 64 65 66 71 69 71 69 70 65 71 69 70 69 68 68 69 69 64 64 63 64 61 60 63 65 71 71 71 70 70 70 70 69 67
58 57 60 64 66 66 68 63 63 63 61 64 69 70 70 69 70 70 70 67 69 70 70 70 70 68 68 64 64 63 57 58 63 63 68 70 69 70 69 70 70 70 70
59 57 62 65 67 68 67 68 66 64 62 62 64 69 70 71 70 71 70 68 71 70 68 69 70 69 65 64 64 62 59 60 63 63 66 70 70 70 70 70 70 70 70
60 59 62 65 66 68 68 68 67 66 61 61 65 70 68 69 70 69 70 69 71 71 71 69 64 66 65 60 60 61 59 57 61 63 64 66 70 70 70 70 71 71 70
59 60 62 60 65 67 68 69 68 66 64 64 63 67 68 69 71 72 70 70 66 69 70 66 70 66 66 64 57 60 59 59 58 64 64 65 67 67 70 70 70 71 70
60 63 63 62 65 67 69 69 68 67 67 65 64 66 69 70 71 72 71 68 71 70 70 68 66 66 63 59 56 61 59 56 59 58 63 66 66 66 66 70 70 70 69
62 64 64 64 67 69 69 70 69 68 67 66 64 63 71 70 71 72 71 70 71 70 68 67 66 64 61 59 55 58 58 59 59 59 59 62 66 66 65 67 70 69 69
62 65 65 66 68 69 69 69 68 66 66 66 65 66 71 71 71 72 71 70 70 69 69 68 67 65 64 57 58 57 58 55 56 57 60 59 64 64 65 68 68 67 69
61 65 66 67 69 70 69 69 68 67 66 66 64 67 69 69 72 72 71 70 70 68 70 69 68 67 62 58 60 58 55 56 55 57 57 56 59 59 57 67 66 68 68
62 65 67 68 70 71 70 70 70 69 68 66 64 66 68 69 71 72 71 71 70 71 69 70 69 68 62 58 63 63 58 54 56 57 56 55 56 56 57 62 65 69 67
61 64 68 69 70 71 71 69 69 66 64 64 63 64 67 70 71 72 72 73 71 70 70 71 71 69 65 57 58 60 62 63 57 53 58 57 58 56 60 59 61 64 66
60 65 68 70 71 72 71 72 69 68 66 64 65 64 68 72 73 72 73 72 72 72 71 71 72 70 69 65 58 57 59 61 59 60 54 58 58 60 58 59 61 60 62
60 65 67 71 71 72 73 71 72 69 67 64 64 65 68 71 72 73 73 73 73 73 72 72 72 72 71 69 64 60 58 57 58 57 59 59 58 59 61 58 59 61 61

GFSSE_sfc_30mbdewp_042.txt.gz
Dewpoint
70 72 73 73 73 73 72 73 73 74 73 74 73 73 73 73 73 73 73 73 72 72 71 71 72 69 67 68 70 70 70 71 71 71 72 72 72 71 72 71 72 71 71
70 73 73 74 73 72 73 73 73 73 73 74 73 73 73 72 72 73 73 72 72 72 72 72 71 70 69 70 69 70 71 70 71 71 71 71 71 71 71 71 72 71 71
71 73 73 74 73 73 73 73 74 72 73 73 73 73 73 72 72 72 73 71 71 71 71 72 71 71 69 70 70 70 70 70 69 70 71 70 70 70 71 71 71 71 71
72 73 73 74 74 73 74 73 73 73 74 73 73 73 73 72 72 72 72 72 71 71 71 71 71 71 70 68 70 69 69 69 70 69 68 68 68 71 71 71 71 71 71
71 73 73 74 74 74 72 74 72 73 72 72 72 72 73 72 72 72 72 71 71 71 71 70 70 70 70 69 68 69 69 69 70 68 66 68 69 70 70 71 71 70 71
72 73 74 74 73 73 73 73 72 72 72 72 72 73 72 72 71 72 72 72 72 71 71 71 70 70 70 69 69 68 68 70 68 68 69 71 70 70 71 70 70 71 71
72 73 74 74 74 73 73 72 72 72 72 73 72 72 73 72 72 72 72 72 71 71 71 71 71 70 70 69 69 69 68 69 69 70 70 70 71 71 70 69 71 71 71
72 73 74 74 74 73 72 73 72 72 72 72 72 72 73 72 72 72 71 71 71 71 71 71 71 71 70 70 69 69 69 69 69 70 71 71 71 70 69 69 71 71 71
72 73 74 74 73 72 72 73 72 72 72 72 72 72 72 72 72 72 72 71 71 71 71 71 71 71 70 69 69 69 70 69 69 70 71 72 71 70 70 69 70 71 71
71 73 73 72 72 73 73 73 72 73 72 72 72 72 71 71 71 72 72 72 71 71 70 70 70 70 70 69 68 68 71 70 69 70 71 72 72 70 70 70 70 70 71
71 72 72 72 72 73 73 72 72 73 72 72 73 73 70 70 71 71 72 71 71 70 70 71 72 71 70 68 68 69 70 68 69 70 71 72 72 70 70 71 71 71 70
69 71 72 71 71 72 72 72 72 73 73 73 69 67 67 68 69 72 72 71 70 69 70 69 69 71 70 70 68 69 69 68 69 70 71 72 71 69 69 71 71 71 70
68 70 70 70 70 71 70 72 72 72 72 72 68 65 66 67 69 70 71 71 70 69 68 65 67 69 68 69 68 68 70 68 68 69 72 71 69 69 69 68 71 71 70
67 68 69 69 69 69 71 71 71 71 71 70 67 63 67 66 69 69 68 69 70 68 68 67 68 69 68 67 68 68 67 68 67 70 72 73 70 69 69 67 67 68 69
65 66 67 67 68 68 69 69 70 69 70 70 69 65 66 67 68 69 69 70 69 69 68 69 68 68 68 65 64 67 67 66 69 71 72 72 72 71 70 69 67 67 67
63 64 65 67 68 68 67 67 68 68 68 70 70 66 68 66 69 69 69 68 68 69 69 68 69 68 66 65 62 64 64 65 67 70 71 72 72 73 71 70 70 69 69
61 62 64 66 67 67 66 65 66 67 66 69 70 68 70 68 70 69 70 70 68 69 68 67 67 67 63 64 61 63 63 64 66 68 69 70 72 72 72 71 71 71 70
59 61 64 65 67 66 67 66 68 66 66 69 70 71 70 70 70 70 70 70 70 71 70 70 68 64 64 64 62 60 63 64 64 66 68 68 70 71 72 72 71 71 71
60 60 63 64 68 66 68 66 67 68 68 68 69 70 70 71 71 68 69 70 70 70 70 67 68 66 64 63 62 60 62 63 63 65 65 66 68 69 71 71 70 71 70
62 62 63 63 68 66 68 66 66 66 67 68 68 68 69 71 71 71 69 68 70 69 69 68 65 64 63 62 59 60 59 62 63 64 64 66 67 67 68 70 70 70 70
63 63 62 63 67 67 67 66 64 64 65 67 68 68 69 70 71 71 70 70 70 69 69 66 66 63 60 60 59 57 58 58 62 64 66 65 66 66 67 68 69 69 70
63 63 63 63 65 67 66 66 66 65 66 66 67 68 69 70 71 71 70 69 70 69 69 68 67 65 62 59 59 57 53 53 60 61 65 65 65 65 65 66 67 68 69
63 63 63 64 64 65 67 67 68 68 67 66 67 68 70 71 71 71 70 70 70 70 69 69 68 65 57 61 61 58 54 51 55 59 61 64 64 64 64 66 66 67 69
62 63 64 65 66 66 68 66 66 65 67 67 66 66 70 71 71 72 71 70 71 70 68 69 69 67 57 57 59 63 63 60 51 52 57 59 62 62 63 67 67 67 67
61 64 64 67 67 67 69 67 66 65 67 68 66 65 68 70 71 71 71 70 70 71 69 69 70 69 63 57 55 60 60 61 60 54 52 56 59 58 63 66 66 66 66
62 64 64 68 67 68 69 68 67 66 67 66 66 65 66 69 70 71 71 71 71 71 71 69 70 69 68 63 62 60 56 56 56 57 57 56 55 57 60 63 66 66 66

GFSSE_sfc_30mbdewp_045.txt.gz
Dewpoint
69 71 73 73 72 73 72 73 73 73 73 73 73 73 72 72 72 72 72 71 71 71 71 70 68 67 69 70 69 69 71 71 72 72 72 72 72 72 72 72 71 71 71
70 72 73 73 72 73 72 73 73 73 73 73 72 72 72 72 72 73 72 72 71 71 72 71 69 69 68 69 70 70 71 71 71 71 71 71 72 72 71 71 72 71 71
71 73 73 73 72 73 73 73 73 73 73 73 73 73 72 72 72 72 71 72 72 72 71 71 70 70 70 70 69 69 70 70 70 71 71 70 71 71 71 71 71 71 71
72 73 74 73 73 72 73 72 73 72 72 73 73 72 72 72 72 72 71 71 71 72 71 71 70 69 69 69 69 70 70 70 69 70 68 69 69 71 71 71 71 71 71
72 73 73 73 74 72 72 73 73 72 72 73 73 73 73 72 72 71 72 71 71 71 71 71 71 69 68 69 69 69 70 70 69 68 68 69 70 71 71 71 71 70 71
73 73 73 72 73 72 72 73 73 72 72 72 73 72 72 72 72 72 71 72 71 71 71 70 70 70 69 69 68 69 70 70 69 68 70 70 70 70 71 71 70 70 71
72 73 73 73 72 73 72 72 72 72 72 73 73 72 72 72 72 72 72 72 72 71 71 71 71 70 69 69 69 69 70 68 69 70 70 71 72 71 69 71 71 71 70
73 74 73 73 72 73 72 72 72 72 73 72 73 73 72 72 72 72 72 71 71 71 71 71 70 69 69 69 69 69 70 69 70 70 71 71 71 70 69 71 71 71 71
73 73 73 73 72 72 72 72 72 72 72 72 73 73 72 72 72 72 71 71 71 71 70 70 69 69 68 69 69 70 70 70 70 71 71 71 70 68 69 71 71 70 70
73 73 73 73 72 72 73 72 72 72 72 72 72 72 72 72 72 72 73 72 71 70 70 70 69 68 68 69 69 70 70 70 70 71 71 71 70 69 68 70 71 70 70
72 73 72 72 72 72 73 72 72 72 72 72 72 73 72 70 71 72 72 71 70 70 71 71 70 69 67 69 70 71 71 69 70 71 72 72 71 70 70 70 70 70 70
69 72 72 72 72 72 73 72 72 73 72 73 72 69 69 69 70 71 72 71 70 69 71 67 70 71 70 68 69 71 68 69 70 70 71 72 70 69 70 71 71 70 70
69 71 71 71 72 72 72 72 72 72 73 72 67 66 68 68 69 70 70 71 70 69 68 67 68 69 68 69 68 70 68 69 69 70 72 72 70 69 69 69 71 71 71
69 70 71 71 71 71 71 71 71 71 72 71 69 64 66 68 69 69 69 69 69 68 67 67 68 69 66 68 68 68 69 68 68 70 72 71 70 69 67 69 70 70 70
68 69 70 69 70 70 69 71 70 70 71 70 68 64 66 67 68 69 69 68 69 69 68 68 69 68 66 64 66 68 68 67 68 70 72 71 70 70 68 67 67 68 69
68 68 69 68 69 69 69 68 69 69 70 70 69 66 67 68 68 68 68 68 68 69 68 68 69 68 65 64 64 68 66 67 69 71 71 72 72 71 70 69 68 67 68
66 67 67 67 68 68 68 67 68 68 68 69 70 68 67 68 69 69 69 68 68 69 68 67 65 66 63 63 62 65 65 66 68 70 71 71 72 71 71 70 70 70 70
64 65 65 66 67 67 67 66 66 67 67 68 69 69 68 68 70 69 69 69 69 69 69 69 68 65 64 62 61 63 63 64 66 68 69 70 71 72 72 72 71 71 71
63 63 64 66 67 67 67 66 66 66 66 68 70 70 69 69 70 69 69 70 70 69 69 69 67 66 62 63 61 61 63 63 64 65 67 68 69 70 71 72 71 71 71
61 61 63 65 67 66 67 67 67 67 68 68 69 70 70 71 71 69 69 69 69 70 69 68 65 64 64 62 60 60 62 63 63 65 64 66 67 68 69 70 70 70 70
60 60 62 64 66 66 67 66 65 65 66 68 69 69 69 71 71 70 69 68 70 69 68 66 65 61 59 60 59 57 57 59 62 64 65 65 66 66 67 68 69 69 69
61 59 62 63 65 67 66 66 65 64 65 66 67 68 69 70 71 71 70 70 70 69 68 67 66 64 60 60 58 54 53 55 59 61 65 65 65 66 66 67 67 67 68
62 61 61 62 63 66 66 66 68 67 66 66 66 68 69 69 71 71 70 69 69 69 68 68 67 64 56 61 62 56 53 51 56 59 61 65 65 65 65 65 66 66 68
62 63 63 62 63 66 66 66 65 63 62 63 65 66 69 70 70 71 70 69 70 70 68 68 68 67 57 58 59 64 61 56 53 55 57 59 62 64 64 65 65 66 67
61 63 63 63 63 65 67 65 65 63 62 66 66 65 68 70 70 71 71 70 70 71 69 69 68 67 58 57 56 60 60 61 56 53 51 56 60 60 61 63 66 66 66
61 63 64 64 64 64 66 65 64 64 65 66 66 65 66 69 70 71 71 70 70 70 70 69 69 68 66 61 58 59 57 58 57 56 55 55 55 57 59 62 65 66 66

GFSSE_sfc_30mbdewp_048.txt.gz
Dewpoint
68 71 72 72 73 72 73 73 73 72 73 72 72 71 71 72 72 72 72 71 70 71 69 68 68 69 69 70 71 70 71 72 72 72 72 73 72 72 72 71 70 70 71
70 72 72 72 72 72 73 73 73 73 73 73 72 72 72 72 72 72 71 71 71 71 69 69 69 68 69 69 69 70 71 71 71 72 72 72 72 71 71 71 71 70 71
70 72 72 73 72 73 72 73 72 73 73 72 72 72 72 72 71 72 71 71 71 71 71 70 70 70 68 69 69 71 71 71 70 71 72 71 71 71 71 71 71 71 70
72 73 72 73 73 72 72 73 72 73 73 73 72 71 71 72 71 71 71 72 70 70 71 69 69 69 69 69 70 70 69 70 71 70 69 70 71 71 71 71 71 71 71
72 74 72 73 73 72 73 73 72 72 73 72 71 72 71 72 72 72 71 72 70 70 69 70 69 69 68 68 69 70 70 70 70 69 70 71 71 71 71 71 71 71 71
72 73 73 73 72 72 73 73 71 72 72 72 71 72 72 72 71 71 71 71 71 71 70 70 70 69 69 69 68 69 70 70 69 69 71 71 70 71 70 70 69 71 71
72 72 72 73 72 72 73 72 71 72 72 72 72 72 71 71 71 72 72 72 71 71 71 69 69 69 69 69 70 69 71 70 69 70 70 71 72 71 71 71 71 71 71
72 72 72 72 73 71 72 72 71 72 72 72 73 72 72 72 72 72 71 71 71 71 70 69 68 68 69 69 69 70 69 69 70 71 71 71 71 69 71 71 70 70 70
73 72 73 72 73 71 71 71 72 72 72 73 73 73 72 72 72 71 71 71 70 70 69 68 68 68 69 69 70 70 70 71 71 71 70 71 70 69 70 70 70 70 70
73 73 73 72 72 72 71 71 71 72 72 73 73 73 72 72 72 72 71 71 70 70 69 67 68 69 69 70 70 71 70 71 71 71 71 70 69 68 70 70 70 70 70
72 72 72 72 72 72 72 71 72 72 72 72 72 73 72 71 72 72 72 71 70 70 70 70 69 69 69 70 70 71 71 70 71 71 71 70 69 69 70 70 71 70 70
70 71 72 72 72 72 72 72 72 72 72 73 72 70 69 69 71 71 72 71 70 71 68 70 71 70 69 70 72 71 69 70 71 71 71 71 71 70 69 71 70 70 70
67 70 71 71 72 72 72 72 72 72 72 72 69 68 68 68 70 70 70 71 70 69 68 68 69 69 69 68 70 69 69 70 70 71 71 70 69 69 67 70 70 71 70
67 69 71 71 71 71 71 71 72 72 72 71 67 65 67 68 69 69 69 69 69 68 67 68 69 69 66 69 68 70 69 69 70 70 72 71 70 68 69 71 71 70 70
68 70 71 71 71 71 70 71 71 71 71 71 69 64 66 67 68 69 68 67 69 70 68 69 68 68 65 64 68 68 69 68 69 70 71 70 70 69 67 69 69 69 69
68 69 70 70 70 70 69 70 70 70 70 70 68 64 65 66 68 68 68 69 69 69 69 69 68 67 65 64 66 68 68 68 69 71 71 72 71 71 68 67 67 67 68
67 69 69 69 69 69 68 68 69 69 69 70 70 67 66 67 68 69 68 68 68 69 68 68 65 65 63 63 65 67 67 68 69 70 71 72 71 71 71 70 69 69 68
67 68 68 68 68 68 68 67 67 68 68 68 69 69 67 68 69 70 69 69 69 69 69 69 67 64 63 62 63 65 65 66 68 70 70 71 72 71 71 71 70 70 70
67 67 67 67 67 67 68 67 66 66 67 67 68 69 69 68 69 70 69 70 70 69 69 69 68 65 64 63 62 63 64 64 65 67 68 69 70 71 71 71 71 71 70
66 66 66 66 66 67 67 67 67 66 67 67 68 69 69 69 70 70 70 70 69 69 68 67 66 65 65 61 60 61 63 64 64 65 66 67 68 69 70 70 71 70 70
64 64 64 65 66 67 67 66 66 66 67 68 68 70 70 69 71 69 69 69 70 68 68 66 65 60 60 61 58 58 58 60 63 65 65 66 66 67 68 69 69 69 69
62 62 63 64 66 66 66 66 66 66 66 67 68 69 70 70 71 70 69 69 69 69 68 66 65 64 59 61 57 56 54 56 60 62 65 66 66 66 66 67 68 68 68
61 61 62 64 64 66 66 67 67 66 66 66 67 68 69 70 71 71 70 70 70 69 68 68 67 64 57 62 61 56 54 52 57 60 62 65 66 66 66 66 66 67 68
61 61 62 63 64 66 66 66 65 64 63 64 65 67 68 69 70 71 71 70 70 70 69 68 68 66 58 59 61 64 59 57 54 55 58 60 63 65 65 65 65 66 67
62 62 61 62 63 65 66 66 65 65 64 64 65 65 67 69 70 70 71 70 69 70 69 69 68 67 59 59 58 61 62 60 56 54 54 56 59 62 64 64 65 66 67
62 63 63 63 63 64 66 66 65 65 64 64 64 64 65 68 69 70 71 70 70 70 70 69 69 68 65 59 58 61 59 59 57 55 54 55 56 58 61 62 63 65 67